Regional Weather Roundup
Issued by NWS New Orleans/Baton Rouge, LA

Home | Current Version | Previous Version | Graphics & Text | Print | Product List | Glossary On
Versions: 1 2 3 4 5 6 7 8 9 10 11 12 13 14 15 16 17 18 19 20 21 22 23 24 25 26 27 28 29 30 31 32 33 34 35 36 37 38 39 40 41 42 43 44 45 46 47 48 49 50
139
ASUS44 KLIX 260710
RWRLIX
NEW ORLEANS REGIONAL WEATHER ROUNDUP
NATIONAL WEATHER SERVICE NEW ORLEANS LA
100 AM CST THU FEB 26 2015

NOTE: "FAIR" INDICATES FEW OR NO CLOUDS BELOW 12,000 FEET WITH NO
      SIGNIFICANT WEATHER AND/OR OBSTRUCTIONS TO VISIBILITY.
      SKY/WX - SKY CONDITION AND SIGNIFICANT WEATHER.
      TMP - AIR TEMPERATURE.     DP    - DEWPOINT TEMPERATURE.
      RH  - RELATIVE HUMIDITY.   PRES  - PRESSURE.
      HI  - HEAT INDEX.          WCI   - WIND CHILL INDEX.

*  THESE STATIONS ARE NOT NWS OR FAA STATIONS AND ARE NOT UNDER
   NWS QUALITY CONTROL.

LAZ038-040-048-061>063-065>067-069-260800-
SOUTHEAST LOUISIANA

CITY           SKY/WX    TMP DP  RH WIND       PRES   REMARKS
N.O. AUDUBON     N/A     42  40  92 MISG        N/A
N.O. INTL ARPT CLOUDY    40  36  86 NW14      29.91R WCI  32
N.O. LAKEFRONT CLOUDY    43  37  79 NW17      29.90R
SLIDELL        CLOUDY    39  36  89 NW6       29.89R WCI  35
BATON ROUGE    CLOUDY    36  32  85 NW8       29.93R WCI  30
BOOTHVILLE     CLOUDY    45  41  86 NW13      29.86R
BELLE CHASSE   CLOUDY    42  36  79 NW10G17   29.89R
BOGALUSA*        N/A     39  35  84 N6        29.90R WCI  35
GALLIANO*      CLOUDY    43  38  83 NW15      29.89R
NEW ROADS*     CLOUDY    35  32  90 NW10      29.94R WCI  27
GONZALES*      CLOUDY    38  37  95 N6        29.92R WCI  33
HAMMOND*       CLOUDY    37  34  87 CALM      29.92R
HOUMA*         CLOUDY    39  36  89 NW14G20   29.90R FOG     WCI  31
PORT FOURCHON* NOT AVBL

$$

MSZ070-080>082-260800-
SOUTHERN MISSISSIPPI

CITY           SKY/WX    TMP DP  RH WIND       PRES   REMARKS
MCCOMB         CLOUDY    34  32  92 N12       29.89R WCI  25
GULFPORT       CLOUDY    39  36  89 NW15      29.85R WCI  31
BILOXI         CLOUDY    39  37  93 NW14      29.84R WCI  31
PASCAGOULA     CLOUDY    39  37  92 NW8       29.84R WCI  33

$$

COASTAL OBSERVATIONS
LAKE AND NEARSHORE STATIONS

STATION/POSITION TIME  TEMP    WIND        PRES    WAVE
                       AIR SEA DIR/SP/G            HT/PER
                 (UTC) (F)     (DEG/KT/KT) (MB)    (FT/S)
PASCAGOULA       0700   40     310/  9/ 13 1009.7
WAVELAND YACHT   0700   39 50  330/ 15/ 16 1010.9
GRAND ISLE       0600   44 56  340/ 13/ 20 1011.4
SOUTHWEST PASS   0700   47 49  340/ 16/ 20 1011.0
NEW CANAL        0700          340/  7/ 15 1012.7
SHELL BEACH      0700   42 52  330/ 19/ 22 1011.4

OFFSHORE STATIONS

STATION/POSITION TIME  TEMP    WIND        PRES    WAVE
                       AIR SEA DIR/SP/G            HT/PER
                 (UTC) (F)     (DEG/KT/KT) (MB)    (FT/S)
64 S DAUPHIN ISL 0556   50 66  310/ 19/ 23 1009.3    8/ 8

$$




USA.gov is the U.S. government's official web portal to all federal, state and local government web resources and services.